Location: Mohawk View
(42.7837°N, 73.7885°W)
Time: 15:16:23
(UTC+00:00)

Cosmos 1331 Rocket - Pass Details

Date: 17 June 2021
Orbit: 749 x 778 km, 74.0° (Epoch: 01 August)

Event Time Altitude Azimuth Distance (km) Brightness Sun altitude
Exits shadow 02:22:27 13° 187° (S) 2,062 5.8 -15.0°
Maximum altitude 02:27:00 66° 107° (ESE) 836 4.0 -15.5°
Drops below altitude 10° 02:32:14 10° 25° (NNE) 2,324 6.9 -16.0°
Sets 02:34:38 0° 23° (NNE) 3,259 7.7 -16.2°
